• en France
  • Liste des pays
  • À 7 jours
  • Température de l'eau
  • Carte satellitaire
  • Carte météo
  • Widgets météo
  • user-avatar
    Se connecter

    Météo par heure à Quibdó

    Ce jour, 15 Novembre, Jeudi

    Heure Température Précipitation Vent Pression Humidité
    00:00 +23°C° 0 mm 0 m/s 751 mmHg 93%
    01:00 +23°C° 0 mm 0 m/s 751 mmHg 93%
    02:00 +23°C° 0 mm 0 m/s 751 mmHg 93%
    03:00 +23°C° 0 mm 0 m/s 750 mmHg 93%
    04:00 +23°C° 0 mm 0 m/s 750 mmHg 94%
    05:00 +23°C° 0 mm 0 m/s 750 mmHg 92%
    06:00 +24°C° 0 mm 0 m/s 751 mmHg 91%
    07:00 +25°C° 0 mm 0 m/s 751 mmHg 88%
    08:00 +26°C° 0.1 mm 0 m/s 751 mmHg 82%
    09:00 +28°C° 0.1 mm 0 m/s 751 mmHg 76%
    10:00 +32°C° 0.1 mm 1 m/s 751 mmHg 70%
    11:00 +32°C° 0.5 mm 1 m/s 750 mmHg 68%
    12:00 +33°C° 0.5 mm 1 m/s 749 mmHg 67%
    13:00 +34°C° 0.5 mm 2 m/s 749 mmHg 66%
    14:00 +32°C° 0.4 mm 1 m/s 748 mmHg 70%
    15:00 +32°C° 0.4 mm 1 m/s 748 mmHg 74%
    16:00 +31°C° 0.4 mm 1 m/s 748 mmHg 78%
    17:00 +29°C° 1.2 mm 1 m/s 748 mmHg 84%
    18:00 +28°C° 1.2 mm 1 m/s 749 mmHg 90%
    19:00 +25°C° 1.2 mm 0 m/s 749 mmHg 96%
    20:00 +24°C° 1.1 mm 0 m/s 750 mmHg 96%
    21:00 +24°C° 1.1 mm 0 m/s 750 mmHg 96%
    22:00 +24°C° 1.1 mm 0 m/s 751 mmHg 97%
    23:00 +24°C° 0.5 mm 0 m/s 751 mmHg 97%

    Demain, 16 Novembre, Vendredi

    Heure Température Précipitation Vent Pression Humidité
    00:00 +24°C° 0.5 mm 0 m/s 750 mmHg 96%
    01:00 +23°C° 0.5 mm 0 m/s 750 mmHg 96%
    02:00 +23°C° 0.3 mm 0 m/s 750 mmHg 96%
    03:00 +23°C° 0.3 mm 0 m/s 750 mmHg 96%
    04:00 +23°C° 0.3 mm 0 m/s 750 mmHg 96%
    05:00 +24°C° 0.1 mm 0 m/s 750 mmHg 96%
    06:00 +24°C° 0.1 mm 0 m/s 750 mmHg 95%
    07:00 +24°C° 0.1 mm 0 m/s 750 mmHg 94%
    08:00 +26°C° 0.1 mm 0 m/s 750 mmHg 86%
    09:00 +28°C° 0.1 mm 0 m/s 750 mmHg 79%
    10:00 +32°C° 0.1 mm 1 m/s 750 mmHg 72%
    11:00 +32°C° 0.6 mm 1 m/s 750 mmHg 74%
    12:00 +32°C° 0.6 mm 1 m/s 749 mmHg 77%
    13:00 +32°C° 0.6 mm 1 m/s 749 mmHg 79%
    14:00 +31°C° 1.3 mm 1 m/s 748 mmHg 83%
    15:00 +30°C° 1.3 mm 1 m/s 748 mmHg 87%
    16:00 +29°C° 1.3 mm 1 m/s 747 mmHg 91%
    17:00 +28°C° 0.6 mm 1 m/s 748 mmHg 93%
    18:00 +27°C° 0.6 mm 1 m/s 748 mmHg 95%
    19:00 +24°C° 0.6 mm 0 m/s 749 mmHg 97%
    20:00 +24°C° 0.1 mm 0 m/s 749 mmHg 96%
    21:00 +24°C° 0.1 mm 0 m/s 750 mmHg 96%
    22:00 +24°C° 0.1 mm 0 m/s 750 mmHg 96%
    23:00 +24°C° 0.2 mm 0 m/s 750 mmHg 96%

    Après-demain, 17 Novembre, Samedi

    Heure Température Précipitation Vent Pression Humidité
    00:00 +24°C° 0.2 mm 0 m/s 750 mmHg 96%
    01:00 +23°C° 0.2 mm 0 m/s 750 mmHg 96%
    02:00 +23°C° 0.2 mm 0 m/s 750 mmHg 96%
    03:00 +23°C° 0.2 mm 0 m/s 750 mmHg 96%
    04:00 +23°C° 0.2 mm 0 m/s 749 mmHg 95%
    05:00 +24°C° 0.1 mm 0 m/s 750 mmHg 94%
    06:00 +24°C° 0.1 mm 0 m/s 750 mmHg 94%
    07:00 +24°C° 0.1 mm 0 m/s 751 mmHg 93%
    08:00 +26°C° 0.2 mm 0 m/s 751 mmHg 86%
    09:00 +30°C° 0.2 mm 1 m/s 751 mmHg 80%
    10:00 +31°C° 0.2 mm 1 m/s 751 mmHg 73%
    11:00 +32°C° 0.5 mm 1 m/s 750 mmHg 73%
    12:00 +32°C° 0.5 mm 1 m/s 750 mmHg 72%
    13:00 +33°C° 0.5 mm 1 m/s 749 mmHg 71%
    14:00 +32°C° 0.7 mm 1 m/s 748 mmHg 76%
    15:00 +31°C° 0.7 mm 1 m/s 748 mmHg 81%
    16:00 +30°C° 0.7 mm 1 m/s 747 mmHg 86%
    17:00 +29°C° 0.5 mm 1 m/s 748 mmHg 90%
    18:00 +28°C° 0.5 mm 1 m/s 748 mmHg 93%
    19:00 +26°C° 0.5 mm 1 m/s 749 mmHg 96%
    20:00 +26°C° 0.3 mm 1 m/s 750 mmHg 96%
    21:00 +24°C° 0.3 mm 0 m/s 750 mmHg 95%
    22:00 +24°C° 0.3 mm 0 m/s 751 mmHg 95%
    23:00 +24°C° 0.5 mm 0 m/s 751 mmHg 95%

    18 Novembre, Dimanche

    Heure Température Précipitation Vent Pression Humidité
    00:00 +24°C° 0.5 mm 0 m/s 750 mmHg 95%
    01:00 +24°C° 0.5 mm 0 m/s 750 mmHg 96%
    02:00 +23°C° 0.9 mm 0 m/s 750 mmHg 96%
    03:00 +23°C° 0.9 mm 0 m/s 749 mmHg 95%
    04:00 +23°C° 0.9 mm 0 m/s 749 mmHg 95%
    05:00 +23°C° 0.6 mm 0 m/s 750 mmHg 95%
    06:00 +24°C° 0.6 mm 0 m/s 750 mmHg 95%
    07:00 +24°C° 0.6 mm 0 m/s 750 mmHg 95%
    08:00 +25°C° 0.3 mm 0 m/s 751 mmHg 92%
    09:00 +26°C° 0.3 mm 0 m/s 751 mmHg 88%
    10:00 +27°C° 0.3 mm 0 m/s 751 mmHg 85%
    11:00 +30°C° 0.4 mm 1 m/s 750 mmHg 81%
    12:00 +31°C° 0.4 mm 1 m/s 750 mmHg 77%
    13:00 +32°C° 0.4 mm 1 m/s 749 mmHg 72%
    14:00 +31°C° 0.5 mm 1 m/s 748 mmHg 76%
    15:00 +30°C° 0.5 mm 1 m/s 748 mmHg 79%
    16:00 +30°C° 0.5 mm 1 m/s 747 mmHg 82%
    17:00 +29°C° 0.6 mm 1 m/s 748 mmHg 87%
    18:00 +28°C° 0.6 mm 1 m/s 749 mmHg 91%
    19:00 +26°C° 0.6 mm 1 m/s 749 mmHg 95%
    20:00 +26°C° 0.2 mm 1 m/s 750 mmHg 96%
    21:00 +24°C° 0.2 mm 0 m/s 750 mmHg 96%
    22:00 +24°C° 0.2 mm 0 m/s 751 mmHg 96%
    23:00 +24°C° 0.2 mm 0 m/s 751 mmHg 95%

    19 Novembre, Lundi

    Heure Température Précipitation Vent Pression Humidité
    00:00 +24°C° 0.2 mm 0 m/s 750 mmHg 95%
    01:00 +23°C° 0.2 mm 0 m/s 750 mmHg 95%
    02:00 +23°C° 0.6 mm 0 m/s 750 mmHg 95%
    03:00 +23°C° 0.6 mm 0 m/s 749 mmHg 94%
    04:00 +23°C° 0.6 mm 0 m/s 749 mmHg 94%
    05:00 +24°C° 0.2 mm 0 m/s 750 mmHg 93%
    06:00 +24°C° 0.2 mm 0 m/s 750 mmHg 92%
    07:00 +24°C° 0.2 mm 0 m/s 751 mmHg 91%
    08:00 +26°C° 0.1 mm 0 m/s 751 mmHg 82%
    09:00 +31°C° 0.1 mm 1 m/s 751 mmHg 73%
    10:00 +33°C° 0.1 mm 1 m/s 751 mmHg 64%
    11:00 +33°C° 0.2 mm 1 m/s 750 mmHg 63%
    12:00 +33°C° 0.2 mm 1 m/s 749 mmHg 63%
    13:00 +34°C° 0.2 mm 1 m/s 748 mmHg 63%
    14:00 +33°C° 1 mm 1 m/s 748 mmHg 69%
    15:00 +31°C° 1 mm 1 m/s 747 mmHg 75%
    16:00 +30°C° 1 mm 1 m/s 747 mmHg 81%
    17:00 +29°C° 1 mm 1 m/s 747 mmHg 86%
    18:00 +28°C° 1 mm 1 m/s 748 mmHg 91%
    19:00 +26°C° 1 mm 1 m/s 749 mmHg 96%
    20:00 +24°C° 1.3 mm 0 m/s 749 mmHg 96%
    21:00 +24°C° 1.3 mm 0 m/s 750 mmHg 96%
    22:00 +24°C° 1.3 mm 0 m/s 751 mmHg 97%
    23:00 +24°C° 0.5 mm 0 m/s 750 mmHg 97%

    20 Novembre, Mardi

    Heure Température Précipitation Vent Pression Humidité
    00:00 +24°C° 0.5 mm 0 m/s 750 mmHg 97%
    01:00 +24°C° 0.5 mm 0 m/s 750 mmHg 97%
    02:00 +24°C° 0.3 mm 0 m/s 750 mmHg 97%
    03:00 +23°C° 0.3 mm 0 m/s 749 mmHg 97%
    04:00 +23°C° 0.3 mm 0 m/s 749 mmHg 96%
    05:00 +24°C° 0 mm 0 m/s 750 mmHg 95%
    06:00 +24°C° 0 mm 0 m/s 750 mmHg 94%
    07:00 +24°C° 0 mm 0 m/s 751 mmHg 93%
    08:00 +26°C° 0.2 mm 0 m/s 751 mmHg 86%
    09:00 +30°C° 0.2 mm 1 m/s 751 mmHg 79%
    10:00 +31°C° 0.2 mm 1 m/s 751 mmHg 73%
    11:00 +32°C° 0.5 mm 1 m/s 750 mmHg 71%
    12:00 +32°C° 0.5 mm 1 m/s 749 mmHg 70%
    13:00 +33°C° 0.5 mm 1 m/s 748 mmHg 68%
    14:00 +32°C° 0.5 mm 1 m/s 748 mmHg 72%
    15:00 +31°C° 0.5 mm 1 m/s 748 mmHg 77%
    16:00 +30°C° 0.5 mm 1 m/s 747 mmHg 81%
    17:00 +29°C° 1.1 mm 1 m/s 748 mmHg 86%
    18:00 +28°C° 1.1 mm 1 m/s 749 mmHg 91%
    19:00 +26°C° 1.1 mm 1 m/s 750 mmHg 95%
    20:00 +26°C° 0.8 mm 1 m/s 750 mmHg 95%
    21:00 +26°C° 0.8 mm 1 m/s 751 mmHg 95%
    22:00 +26°C° 0.8 mm 1 m/s 751 mmHg 95%
    23:00 +24°C° 0.8 mm 0 m/s 751 mmHg 94%
    Voir plus